Location: Newark
(43.6583°N, 1.6617°E)
Time: 09:57:02
(UTC+00:00)

Tiros 1 - Pass Details

Date: 30 August 2019
Orbit: 631 x 664 km, 48.4° (Epoch: 14 September)

Event Time Altitude Azimuth Distance (km) Brightness Sun altitude
Rises 20:20:38 0° 222° (SW) 2,911 10.6 -18.7°
Reaches altitude 10° 20:23:01 10° 216° (SW) 2,004 9.7 -19.0°
Enters shadow 20:27:11 43° 153° (SSE) 883 7.4 -19.7°
Maximum altitude 20:27:23 44° 145° (SE) 879 - -19.7°
Drops below altitude 10° 20:31:46 10° 74° (ENE) 2,010 - -20.3°
Sets 20:34:10 0° 67° (ENE) 2,921 - -20.7°
